Regional Weather Roundup
Issued by NWS

Home | Current Version | Previous Version | Graphics & Text | Print | Product List | Glossary On
Versions: 1 2 3 4 5 6 7 8 9 10 11 12 13 14 15 16 17 18 19 20 21 22 23 24 25 26 27 28 29 30 31 32 33 34 35 36 37 38 39 40 41 42 43 44 45 46 47 48 49 50
000
ASUS43 KBIS 282010
RWRND

NORTH DAKOTA REGIONAL WEATHER ROUNDUP
NATIONAL WEATHER SERVICE BISMARCK ND
300 PM CDT THU APR 28 2016

NOTE: "FAIR" INDICATES FEW OR NO CLOUDS BELOW 12,000 FEET WITH NO
SIGNIFICANT WEATHER AND/OR OBSTRUCTIONS TO VISIBILITY.


NDZ001>003-009>011-017-282100-
NORTHWEST NORTH DAKOTA

CITY           SKY/WX    TMP DP  RH WIND       PRES   REMARKS
WILLISTON      PTSUNNY   57  23  26 NE13      30.13F
MINOT          CLOUDY    59  11  15 NE15      30.13S
MINOT AFB      CLOUDY    55  14  19 E15G21    30.12S
$$

NDZ018>021-031>035-040>046-282100-
SOUTHWEST NORTH DAKOTA

CITY           SKY/WX    TMP DP  RH WIND       PRES   REMARKS
BISMARCK       CLOUDY    56  22  26 NE15      30.09S
DICKINSON      CLOUDY    48  30  49 MISG      30.08S
GARRISON         N/A     56  22  26 E12G20    30.11F
HETTINGER ARPT CLOUDY    44  35  70 NE7       30.10F
$$

NDZ004>008-012>016-024-026-027-054-282100-
NORTHEAST NORTH DAKOTA

CITY           SKY/WX    TMP DP  RH WIND       PRES   REMARKS
GRAND FORKS    PTSUNNY   57  24  28 NE20      30.11S
GRND FRKS AFB  PTSUNNY   55  21  26 NE15G23   30.12S
DEVILS LAKE    MOSUNNY   54  18  24 E15G23    30.14R
$$

NDZ022-023-025-028>030-036>039-047>053-282100-
SOUTHEAST NORTH DAKOTA

CITY           SKY/WX    TMP DP  RH WIND       PRES   REMARKS
FARGO          CLOUDY    58  19  22 NE17      30.05F
JAMESTOWN      PTSUNNY   56  24  29 E20G28    30.06S
$$




USA.gov is the U.S. government's official web portal to all federal, state and local government web resources and services.